• In Germany
  • List of Countries
  • For 7 days
  • Water Temperature
  • Satellite Maps
  • Weather Map
  • Weather Widgets
  • user-avatar
    Login

    Hourly Weather Fier

    Today, 30 May, Tuesday

    Time Temperature Precipitation Wind Pressure Humidity
    00:00 +16°C° 0 mm 1 mps 761 mmHg 80%
    01:00 +16°C° 0 mm 1 mps 761 mmHg 80%
    02:00 +16°C° 0 mm 1 mps 761 mmHg 80%
    03:00 +16°C° 0 mm 1 mps 761 mmHg 81%
    04:00 +16°C° 0 mm 1 mps 761 mmHg 81%
    05:00 +19°C° 0 mm 1 mps 761 mmHg 74%
    06:00 +19°C° 0 mm 0 mps 761 mmHg 67%
    07:00 +21°C° 0 mm 0 mps 761 mmHg 60%
    08:00 +24°C° 0 mm 1 mps 761 mmHg 56%
    09:00 +26°C° 0 mm 1 mps 761 mmHg 51%
    10:00 +27°C° 0 mm 2 mps 762 mmHg 47%
    11:00 +27°C° 0.1 mm 2 mps 761 mmHg 46%
    12:00 +27°C° 0.1 mm 3 mps 761 mmHg 45%
    13:00 +28°C° 0.1 mm 3 mps 761 mmHg 44%
    14:00 +27°C° 0.1 mm 3 mps 761 mmHg 45%
    15:00 +27°C° 0.1 mm 3 mps 761 mmHg 46%
    16:00 +26°C° 0.1 mm 3 mps 761 mmHg 47%
    17:00 +24°C° 0 mm 2 mps 761 mmHg 55%
    18:00 +21°C° 0 mm 2 mps 762 mmHg 64%
    19:00 +19°C° 0 mm 2 mps 762 mmHg 72%
    20:00 +18°C° 0 mm 2 mps 762 mmHg 73%
    21:00 +18°C° 0 mm 1 mps 763 mmHg 74%
    22:00 +16°C° 0 mm 1 mps 763 mmHg 75%
    23:00 +16°C° 0 mm 1 mps 763 mmHg 75%

    Tomorrow, 31 May, Wednesday

    Time Temperature Precipitation Wind Pressure Humidity
    00:00 +16°C° 0 mm 1 mps 763 mmHg 75%
    01:00 +16°C° 0 mm 1 mps 763 mmHg 75%
    02:00 +15°C° 0 mm 1 mps 763 mmHg 75%
    03:00 +15°C° 0 mm 2 mps 763 mmHg 74%
    04:00 +15°C° 0 mm 2 mps 763 mmHg 74%
    05:00 +19°C° 0 mm 1 mps 763 mmHg 66%
    06:00 +21°C° 0 mm 1 mps 763 mmHg 58%
    07:00 +24°C° 0 mm 1 mps 763 mmHg 50%
    08:00 +25°C° 0 mm 2 mps 763 mmHg 47%
    09:00 +26°C° 0 mm 2 mps 763 mmHg 44%
    10:00 +27°C° 0 mm 2 mps 763 mmHg 41%
    11:00 +28°C° 0 mm 3 mps 763 mmHg 40%
    12:00 +29°C° 0 mm 3 mps 763 mmHg 40%
    13:00 +29°C° 0 mm 3 mps 763 mmHg 39%
    14:00 +29°C° 0 mm 3 mps 763 mmHg 41%
    15:00 +28°C° 0 mm 3 mps 762 mmHg 44%
    16:00 +28°C° 0 mm 3 mps 762 mmHg 46%
    17:00 +25°C° 0 mm 2 mps 762 mmHg 57%
    18:00 +23°C° 0 mm 2 mps 762 mmHg 67%
    19:00 +20°C° 0 mm 1 mps 762 mmHg 78%
    20:00 +19°C° 0 mm 1 mps 763 mmHg 79%
    21:00 +19°C° 0 mm 1 mps 763 mmHg 81%
    22:00 +16°C° 0 mm 0 mps 763 mmHg 83%
    23:00 +16°C° 0 mm 0 mps 763 mmHg 83%

    Day after tomorrow, 1 June, Thursday

    Time Temperature Precipitation Wind Pressure Humidity
    00:00 +15°C° 0 mm 0 mps 763 mmHg 84%
    01:00 +15°C° 0 mm 0 mps 763 mmHg 84%
    02:00 +15°C° 0 mm 0 mps 763 mmHg 83%
    03:00 +16°C° 0 mm 1 mps 763 mmHg 82%
    04:00 +16°C° 0 mm 1 mps 763 mmHg 81%
    05:00 +19°C° 0 mm 1 mps 763 mmHg 71%
    06:00 +22°C° 0 mm 1 mps 763 mmHg 60%
    07:00 +25°C° 0 mm 1 mps 763 mmHg 50%
    08:00 +26°C° 0 mm 1 mps 763 mmHg 45%
    09:00 +28°C° 0 mm 2 mps 763 mmHg 41%
    10:00 +29°C° 0 mm 2 mps 763 mmHg 37%
    11:00 +30°C° 0 mm 3 mps 762 mmHg 37%
    12:00 +30°C° 0 mm 3 mps 762 mmHg 38%
    13:00 +32°C° 0 mm 4 mps 762 mmHg 38%
    14:00 +30°C° 0 mm 4 mps 762 mmHg 40%
    15:00 +29°C° 0 mm 3 mps 762 mmHg 43%
    16:00 +29°C° 0 mm 3 mps 761 mmHg 45%
    17:00 +26°C° 0 mm 3 mps 762 mmHg 54%
    18:00 +24°C° 0 mm 2 mps 762 mmHg 64%
    19:00 +20°C° 0 mm 2 mps 762 mmHg 73%
    20:00 +20°C° 0 mm 2 mps 762 mmHg 76%
    21:00 +20°C° 0 mm 1 mps 762 mmHg 78%
    22:00 +19°C° 0 mm 1 mps 763 mmHg 81%
    23:00 +19°C° 0 mm 1 mps 763 mmHg 81%

    2 June, Friday

    Time Temperature Precipitation Wind Pressure Humidity
    00:00 +18°C° 0 mm 1 mps 762 mmHg 81%
    01:00 +18°C° 0 mm 1 mps 762 mmHg 80%
    02:00 +18°C° 0 mm 1 mps 762 mmHg 80%
    03:00 +18°C° 0 mm 1 mps 762 mmHg 81%
    04:00 +18°C° 0 mm 1 mps 762 mmHg 81%
    05:00 +20°C° 0 mm 1 mps 762 mmHg 72%
    06:00 +23°C° 0 mm 1 mps 762 mmHg 63%
    07:00 +26°C° 0 mm 1 mps 762 mmHg 54%
    08:00 +27°C° 0 mm 2 mps 762 mmHg 50%
    09:00 +29°C° 0 mm 2 mps 762 mmHg 46%
    10:00 +30°C° 0 mm 2 mps 762 mmHg 42%
    11:00 +31°C° 0 mm 3 mps 762 mmHg 42%
    12:00 +32°C° 0 mm 4 mps 761 mmHg 42%
    13:00 +33°C° 0 mm 4 mps 761 mmHg 42%
    14:00 +32°C° 0.1 mm 4 mps 761 mmHg 45%
    15:00 +30°C° 0.1 mm 4 mps 761 mmHg 48%
    16:00 +29°C° 0.1 mm 3 mps 760 mmHg 51%
    17:00 +27°C° 0 mm 3 mps 761 mmHg 60%
    18:00 +25°C° 0 mm 2 mps 761 mmHg 69%
    19:00 +21°C° 0 mm 2 mps 761 mmHg 78%
    20:00 +22°C° 0.1 mm 1 mps 761 mmHg 80%
    21:00 +21°C° 0.1 mm 1 mps 761 mmHg 82%
    22:00 +20°C° 0.1 mm 1 mps 761 mmHg 85%
    23:00 +20°C° 0.1 mm 1 mps 761 mmHg 85%

    3 June, Saturday

    Time Temperature Precipitation Wind Pressure Humidity
    00:00 +20°C° 0.1 mm 1 mps 761 mmHg 85%
    01:00 +20°C° 0.1 mm 1 mps 760 mmHg 85%
    02:00 +19°C° 0 mm 1 mps 760 mmHg 86%
    03:00 +19°C° 0 mm 1 mps 760 mmHg 86%
    04:00 +19°C° 0 mm 1 mps 760 mmHg 87%
    05:00 +21°C° 0 mm 1 mps 760 mmHg 78%
    06:00 +24°C° 0 mm 1 mps 761 mmHg 70%
    07:00 +26°C° 0 mm 1 mps 761 mmHg 61%
    08:00 +28°C° 0.1 mm 1 mps 761 mmHg 56%
    09:00 +29°C° 0.1 mm 2 mps 761 mmHg 52%
    10:00 +30°C° 0.1 mm 2 mps 761 mmHg 47%
    11:00 +30°C° 0.2 mm 3 mps 760 mmHg 47%
    12:00 +31°C° 0.2 mm 3 mps 760 mmHg 46%
    13:00 +32°C° 0.2 mm 4 mps 760 mmHg 45%
    14:00 +30°C° 0.1 mm 4 mps 760 mmHg 47%
    15:00 +30°C° 0.1 mm 3 mps 760 mmHg 49%
    16:00 +29°C° 0.1 mm 3 mps 759 mmHg 51%
    17:00 +27°C° 0.1 mm 3 mps 760 mmHg 60%
    18:00 +25°C° 0.1 mm 3 mps 760 mmHg 68%
    19:00 +23°C° 0.1 mm 2 mps 760 mmHg 77%
    20:00 +21°C° 0 mm 2 mps 760 mmHg 80%
    21:00 +21°C° 0 mm 1 mps 760 mmHg 83%
    22:00 +20°C° 0 mm 1 mps 760 mmHg 86%
    23:00 +20°C° 0 mm 1 mps 760 mmHg 86%

    4 June, Sunday

    Time Temperature Precipitation Wind Pressure Humidity
    00:00 +20°C° 0 mm 1 mps 760 mmHg 87%
    01:00 +19°C° 0 mm 1 mps 760 mmHg 87%
    02:00 +19°C° 0 mm 1 mps 760 mmHg 87%
    03:00 +19°C° 0 mm 1 mps 760 mmHg 87%
    04:00 +18°C° 0 mm 2 mps 760 mmHg 88%
    05:00 +21°C° 0 mm 1 mps 760 mmHg 79%
    06:00 +24°C° 0 mm 1 mps 760 mmHg 70%
    07:00 +26°C° 0 mm 1 mps 760 mmHg 62%
    08:00 +27°C° 0 mm 2 mps 760 mmHg 56%
    09:00 +29°C° 0 mm 2 mps 760 mmHg 51%
    10:00 +30°C° 0 mm 3 mps 760 mmHg 45%
    11:00 +31°C° 0.1 mm 3 mps 760 mmHg 45%
    12:00 +32°C° 0.1 mm 4 mps 760 mmHg 45%
    13:00 +32°C° 0.1 mm 4 mps 760 mmHg 45%
    14:00 +30°C° 0.1 mm 4 mps 759 mmHg 47%
    15:00 +30°C° 0.1 mm 4 mps 759 mmHg 49%
    16:00 +29°C° 0.1 mm 3 mps 759 mmHg 51%
    17:00 +27°C° 0 mm 3 mps 759 mmHg 59%
    18:00 +25°C° 0 mm 3 mps 759 mmHg 67%
    19:00 +23°C° 0 mm 2 mps 759 mmHg 76%
    20:00 +21°C° 0 mm 2 mps 760 mmHg 78%
    21:00 +22°C° 0 mm 1 mps 760 mmHg 81%
    22:00 +21°C° 0 mm 1 mps 760 mmHg 83%
    23:00 +21°C° 0 mm 1 mps 760 mmHg 84%
    Show more